Location: Laverne
(36.7100°N, 99.8930°W)
Time: 11:50:37
(UTC-06:00)

Milstar 3 - Pass Details

Date: 19 October 2017
Orbit: 1097 x 5148 km, 28.2° (Epoch: 12 November)

Event Time Altitude Azimuth Distance (km) Brightness Sun altitude
Exits shadow 04:43:16 31° 132° (SE) 1,806 4.0 -38.0°
Drops below altitude 10° 04:47:15 10° 108° (ESE) 3,081 5.6 -37.2°
Sets 04:50:22 0° 101° (E) 4,252 6.6 -36.6°
